EW9082 Weather Reports


time (UTC)temp
F
wind
direction
speed
knots
gust
knots
rain 1hr
in
rain 24hr
in
rain mn
in
humidity
%
barometer
mb
20260503054528 48 314 0.9 3.5 0.00 0.00 0.00 67 1010.3
20260503053026 48 328 0.0 1.7 0.00 0.00 0.00 74 1010.5
20260503051507 48 326 0.0 2.6 0.00 0.00 0.00 83 1010.5
20260503050007 48 308 0.9 3.5 0.00 0.00 0.00 88 1010.5
20260503044548 48 294 0.0 1.7 0.00 0.00 0.00 91 1010.9
20260503043054 48 162 0.0 0.0 0.00 0.00 0.00 93 1011.1
20260503041529 48 160 0.0 0.0 0.00 0.00 0.00 95 1011.0
20260503040032 48 160 0.0 0.0 0.00 0.00 0.00 95 1011.4
20260503034515 48 160 0.0 0.0 0.00 0.00 0.00 94 1011.4
20260503033015 48 160 0.0 0.0 0.00 0.00 0.00 94 1011.6
20260503031513 48 160 0.0 0.0 0.00 0.00 0.00 94 1011.4
20260503030012 48 160 0.0 0.0 0.00 0.00 0.00 93 1011.3
20260503024512 48 160 0.0 0.0 0.00 0.00 0.00 93 1011.4
20260503023033 48 160 0.0 0.0 0.00 0.00 0.00 93 1011.6
20260503021512 49 160 0.0 0.0 0.00 0.00 0.00 93 1011.7
20260503020011 49 160 0.0 0.0 0.00 0.00 0.00 93 1011.7
20260503014553 49 160 0.0 0.0 0.00 0.00 0.00 93 1011.9
20260503013103 49 160 0.0 0.9 0.00 0.00 0.00 93 1011.9
20260503011554 49 166 0.0 0.0 0.00 0.00 0.00 93 1011.9
20260503010051 49 147 0.0 0.0 0.00 0.00 0.00 92 1011.9
20260503004541 49 147 0.0 0.0 0.00 0.00 0.00 92 1011.8
20260503003056 49 138 0.0 1.7 0.00 0.00 0.00 92 1011.7
20260503001540 49 152 0.0 0.0 0.00 0.00 0.00 91 1011.7
20260503000057 50 186 0.0 0.0 0.00 0.00 0.00 90 1011.6
20260502234543 50 186 0.0 0.0 0.00 0.00 0.00 90 1011.8
20260502233039 50 186 0.0 0.0 0.00 0.00 0.00 90 1011.8
20260502231527 50 200 0.0 1.7 0.00 0.00 0.00 90 1011.7
20260502230027 50 163 0.0 0.9 0.00 0.00 0.00 89 1011.9
20260502224526 50 200 0.0 0.9 0.00 0.00 0.00 90 1011.9
20260502223027 50 119 0.0 0.9 0.00 0.00 0.00 90 1011.9
20260502221524 50 91 0.0 2.6 0.00 0.00 0.00 90 1011.8
20260502220025 50 88 0.0 1.7 0.00 0.00 0.00 89 1011.8
20260502214522 50 217 0.0 0.9 0.00 0.00 0.00 89 1011.6
20260502213028 50 114 1.7 4.3 0.00 0.00 0.00 88 1011.4
20260502211509 51 84 0.0 2.6 0.00 0.00 0.00 88 1011.6
20260502210007 51 148 0.0 1.7 0.00 0.00 0.00 87 1011.8
20260502204515 51 186 0.0 1.7 0.00 0.00 0.00 87 1011.9
20260502203013 51 160 0.9 4.3 0.00 0.00 0.00 87 1011.8
20260502201504 51 175 0.0 3.5 0.00 0.00 0.00 87 1011.9
20260502200003 51 207 0.9 6.1 0.00 0.00 0.00 87 1012.1
20260502194501 51 205 0.0 3.5 0.00 0.00 0.00 87 1012.4
20260502193100 51 191 0.9 4.3 0.00 0.00 0.00 87 1012.3
20260502191542 51 84 0.9 3.5 0.00 0.00 0.00 85 1012.6
20260502190039 52 147 0.0 3.5 0.00 0.00 0.00 83 1012.7
20260502184528 52 190 0.9 7.0 0.00 0.00 0.00 79 1012.7
20260502183021 52 108 1.7 4.3 0.00 0.00 0.00 76 1012.8
20260502181501 52 133 2.6 9.6 0.00 0.00 0.00 77 1013.0
20260502163030 53 134 1.7 7.0 0.00 0.00 0.00 79 1013.0
20260502161528 53 186 1.7 5.2 0.00 0.00 0.00 79 1013.1
20260502151536 56 153 0.0 5.2 0.00 0.00 0.00 75 1013.8
20260502123027 51 169 0.9 5.2 0.00 0.00 0.00 83 1014.3
20260502121521 51 148 0.0 4.3 0.00 0.00 0.00 82 1014.0
20260502114503 50 195 0.0 3.5 0.00 0.00 0.00 83 1013.9
20260502113001 50 185 0.9 3.5 0.00 0.00 0.00 83 1013.6
20260502111602 49 200 0.0 1.7 0.00 0.00 0.00 83 1013.6
20260502110058 49 111 0.0 2.6 0.00 0.00 0.00 83 1013.6
20260502104556 48 127 0.0 0.9 0.00 0.00 0.00 83 1013.6
20260502103054 48 126 0.0 1.7 0.00 0.00 0.00 82 1013.2
20260502101553 47 139 0.0 0.9 0.00 0.00 0.00 81 1013.1
20260502091516 47 152 0.0 3.5 0.00 0.00 0.00 80 1013.2
20260502071501 47 84 0.0 1.7 0.00 0.00 0.00 80 1013.0
20260502070043 47 246 0.0 0.0 0.00 0.00 0.00 80 1013.0
20260502064541 47 122 0.0 0.0 0.00 0.00 0.00 79 1013.1
20260502063024 47 122 0.0 0.0 0.00 0.00 0.00 79 1013.3
20260502061522 47 122 0.0 0.0 0.00 0.00 0.00 79 1013.2
20260502060003 47 122 0.0 0.9 0.00 0.00 0.00 80 1013.3